Погода в Тростенце

Россия / Белгородская область     50°50′27″N   37°39′09″E
темп.,
°C
ветер,
м/с
пор.,
м/с
влажн.,
%
обл.,
%
осадки,
мм/ч
давл.,
гПа
погр.,
м
16 апреля, пт
пт1600:00+8ююв23875 0.1 101483
03:00+7юв24875 0.1 101570
06:00+6юв25935 0.0 1016130
09:00+10ююв57697 0.0 1016840
12:00+11ю5756100 0.0 10171521
15:00+12ююз565395 0.1 10171013
18:00+12ююз455615 0.0 1017937
21:00+8ю22712 0.0 101712
17 апреля, сб
сб1700:00+8ююв227198 0.0 101727
03:00+7ю1386100 0.9 1018140
06:00+6ссз2391100 1.4 1017109
09:00+8ююз2376100 1.6 1018567
12:00+11юз665943 1.4 10181433
15:00+10юз555899 1.7 10191507
18:00+9юз566314 0.0 1019884
21:00+7ююз477876 0.1 1019302
18 апреля, вс
вс1800:00+7ююз4781100 0.3 1020353
03:00+6ююз358971 0.3 1019183
06:00+5ююз368783 0.0 1020273
09:00+8юз357240 0.0 1019747
12:00+12ююз685898 0.3 10191453
15:00+12ююз6755100 0.6 10181438
18:00+12ююв4759100 0.0 1018637
21:00+10юв5966100 0.0 1018260
19 апреля, пн
пн1900:00+9ююв3966100 0.0 1018207
03:00+7юв3107392 0.0 1017224
06:00+8юв2373100 0.1 101766
09:00+12ююв475877 0.1 1017562
12:00+15юв564196 0.0 10162341
15:00+16юв453893 0.0 10142130
18:00+13юв61065100 0.1 1014519
21:00+11вюв61277100 0.5 1013586
20 апреля, вт
вт2000:00+10в61384100 1.1 1011742
03:00+10в81486100 1.5 1008720
06:00+10в101893100 3.4 1004798
09:00+10в102094100 10.3 10001340
12:00+12юв101793100 6.8 998897
15:00+16ю8136310 7.8 9981820
18:00+14ю1016685 0.8 9981446
21:00+10ююв9157995 1.1 10001108